カタログに戻る

DELTA 1 R/B(1)

運用中LEO
NORAD 10062·ROCKET BODY·🇺🇸 United States

打ち上げ Jun 16, 1977 から Cape Canaveral Space Force Station

Loading…

次のパス (今後24時間)

TLE

最新Source: Space-Track

元期: Sep 14, 2026, 12:41 UTC

1 10062U 77048B   26257.52847896  .00000192  00000-0  37633-4 0  9994
2 10062  28.4180 357.7955 0726398  21.3689 341.5649 13.39083493399005

AllMySatでDELTA 1 R/B(1)をリアルタイム追跡

Download on the App Store